Weather History for Springfield, MO

Change the Weather History Date:

Wednesday, March 20, 2013

  Actual Average Record
Temperature  
Mean Temperature 33 °F 48 °F  
Max Temperature 43 °F 59 °F 92 °F (1907)
Min Temperature 23 °F 37 °F 10 °F (1965)
Degree Days  
Heating Degree Days 32 17  
Month to date heating degree days 459 407  
Since 1 July heating degree days 3757 4000  
Cooling Degree Days 0 0  
Month to date cooling degree days 0 0  
Year to date cooling degree days 0 0  
Moisture  
Dew Point 20 °F    
Average Humidity 58    
Maximum Humidity 92    
Minimum Humidity 24    
Precipitation  
Precipitation 0.00 in 0.11 in 1.71 in (1955)
Month to date precipitation 3.14 2.23  
Year to date precipitation 8.48 7.22  
Snow  
Snow 0.00 in - - ()
Month to date snowfall T  
Since 1 July snowfall 7.0  
Snow Depth 0.00 in    
Sea Level Pressure  
Sea Level Pressure 30.25 in    
Wind  
Wind Speed 12 mph (NW)    
Max Wind Speed 28 mph    
Max Gust Speed 37 mph    
Visibility 10 miles    
Events      
T = Trace of Precipitation, MM = Missing Value Source: NWS Daily Summary

Daily Weather History Graph

Daily Weather History Graph

Search for Another Location

Airport:

Trip Planner

Search our weather history database for the weather conditions in past years. The results will help you decide how hot, cold, wet, or windy it might be!

Date:

Astronomy

Mar. 20, 2013 Rise Set
Actual Time 7:16 AM CDT 7:25 PM CDT
Civil Twilight 6:50 AM CDT 7:51 PM CDT
Nautical Twilight 6:20 AM CDT 8:22 PM CDT
Astronomical Twilight 5:49 AM CDT 8:52 PM CDT
Moon 1:08 PM CDT (3/20) 2:49 AM CDT (3/20)
Length of Visible Light 13h 00m
Length of Day
12h 08m
First Quarter, 59% of the Moon is Illuminated
Mar 20
First Quarter
Mar 27
Full
Apr 2
Last Quarter
Apr 10
New
Apr 18
First Quarter

Hourly Weather History & Observations

Time (CDT) Temp. Windchill Dew Point Humidity Pressure Visibility Wind Dir Wind Speed Gust Speed Precip Events Conditions
12:52 AM 30.0 °F - 27.0 °F 88% 30.25 in 10.0 mi North - - N/A   Clear
1:52 AM 28.9 °F - 25.0 °F 85% 30.25 in 10.0 mi North - - N/A   Clear
2:52 AM 28.9 °F - 26.1 °F 89% 30.25 in 10.0 mi North - - N/A   Clear
3:52 AM 28.9 °F - 26.1 °F 89% 30.24 in 10.0 mi Calm Calm - N/A   Clear
4:52 AM 32.0 °F - 28.0 °F 85% 30.24 in 10.0 mi North - - N/A   Clear
5:38 AM 33.1 °F - 28.9 °F 85% 30.23 in 10.0 mi North - - N/A   Mostly Cloudy
5:52 AM 32.0 °F 25.6 °F 28.9 °F 88% 30.26 in 10.0 mi WNW 6.9 mph - N/A   Mostly Cloudy
5:59 AM 32.0 °F 24.8 °F 28.9 °F 88% 30.24 in 10.0 mi NW 8.1 mph - N/A   Scattered Clouds
6:31 AM 32.0 °F 23.6 °F 30.0 °F 92% 30.26 in 10.0 mi NW 10.4 mph - N/A   Mostly Cloudy
6:52 AM 33.1 °F 24.4 °F 30.0 °F 89% 30.30 in 10.0 mi NW 11.5 mph - N/A   Overcast
7:20 AM 33.1 °F 22.2 °F 30.9 °F 92% 30.29 in 8.0 mi NNW 17.3 mph - N/A   Overcast
7:52 AM 33.1 °F 22.6 °F 30.0 °F 89% 30.34 in 7.0 mi NNW 16.1 mph - N/A   Overcast
8:52 AM 32.0 °F 20.1 °F 19.9 °F 61% 30.36 in 10.0 mi North 19.6 mph - N/A   Overcast
9:52 AM 34.0 °F 25.0 °F 19.0 °F 54% 30.35 in 10.0 mi NNW 12.7 mph - N/A   Mostly Cloudy
10:52 AM 37.0 °F 26.7 °F 15.1 °F 41% 30.35 in 10.0 mi NW 19.6 mph 26.5 mph N/A   Mostly Cloudy
11:52 AM 39.0 °F 29.9 °F 10.9 °F 32% 30.35 in 10.0 mi NW 17.3 mph 24.2 mph N/A   Clear
12:52 PM 41.0 °F 32.8 °F 14.0 °F 33% 30.32 in 10.0 mi NW 16.1 mph 28.8 mph N/A   Clear
1:52 PM 42.1 °F 33.3 °F 10.9 °F 28% 30.30 in 10.0 mi NNW 19.6 mph 31.1 mph N/A   Clear
2:52 PM 42.1 °F - 9.0 °F 26% 30.25 in 10.0 mi North - - N/A   Clear
3:52 PM 42.1 °F 32.8 °F 10.0 °F 27% 30.23 in 10.0 mi NNW 21.9 mph 29.9 mph N/A   Clear
4:52 PM 42.1 °F 34.2 °F 10.9 °F 28% 30.20 in 10.0 mi NW 16.1 mph 25.3 mph N/A   Clear
5:52 PM 39.9 °F 31.1 °F 10.0 °F 29% 30.20 in 10.0 mi NNW 17.3 mph 27.6 mph N/A   Clear
6:52 PM 37.0 °F 28.1 °F 10.9 °F 34% 30.19 in 10.0 mi NNW 15.0 mph - N/A   Clear
7:52 PM 30.9 °F 22.8 °F 14.0 °F 50% 30.17 in 10.0 mi NNW 9.2 mph - N/A   Clear
8:52 PM 32.0 °F 27.5 °F 12.0 °F 44% 30.17 in 10.0 mi NW 4.6 mph - N/A   Clear
9:52 PM 30.9 °F - 12.0 °F 46% 30.16 in 10.0 mi Calm Calm - N/A   Clear
10:52 PM 28.9 °F 25.2 °F 15.1 °F 56% 30.17 in 10.0 mi NW 3.5 mph - N/A   Clear
11:52 PM 25.0 °F - 15.1 °F 66% 30.15 in 10.0 mi Calm Calm - N/A   Clear